Regional Weather Roundup
Issued by NWS Jackson, KY

Home | Current Version | Previous Version | Text Only | Print | Product List | Glossary Off
Versions: 1 2 3 4 5 6 7 8 9 10 11 12 13 14 15 16 17 18 19 20 21 22 23 24 25 26 27 28 29 30 31 32 33 34 35 36 37 38 39 40 41 42 43 44 45 46 47 48 49 50

000
ASUS43 KJKL 010319
RWRJKL

EAST KENTUCKY HOURLY WEATHER ROUNDUP
NATIONAL WEATHER SERVICE JACKSON KY
1100 PM EDT SUN AUG 31 2014

NOTE: "FAIR" INDICATES FEW OR NO CLOUDS BELOW 12,000 FEET WITH
NO SIGNIFICANT WEATHER AND/OR OBSTRUCTIONS TO VISIBILITY.

* THESE REPORTS ARE NOT UNDER NWS QUALITY CONTROL AND MAY NOT
  REPORT WEATHER SUCH AS PRECIPITATION AND FOG.

KYZ079-080-083-085-087-088-110-112-115-119-120-010400
...EASTERN KENTUCKY...

CITY           SKY/WX    TMP DP  RH WIND       PRES   REMARKS
JACKSON        LGT RAIN  72  69  90 VRB3      30.08S
LONDON         CLOUDY    75  69  81 SW7       30.09R
SOMERSET*      PTCLDY    72  72 100 S3        30.08S
MONTICELLO*    PTCLDY    74  72  93 SW7       30.09R
MIDDLESBORO*   CLOUDY    72  69  93 CALM      30.11S
HARLAN APT*    CLOUDY    70  70 100 MISG      30.12S VSB 1/4
HAZARD APT*    CLOUDY    75  68  78 SW7       30.09
BLACK MTN*       N/A     64  64 100 SW8         N/A
PIKEVILLE APT* CLEAR     73  68  83 S6        30.09S
BIG SANDY*     CLOUDY    73  70  90 S7        30.07S
MOREHEAD APT*  CLOUDY    72  72 100 S10       30.07S
ASHLAND*       MOCLDY    72  70  94 CALM      30.02S
$$

KYZ035-036-041-042-044-050-067-078-099-010400
...CENTRAL KENTUCKY...

CITY           SKY/WX    TMP DP  RH WIND       PRES   REMARKS
MT STERLING*   CLOUDY    72  72 100 CALM      30.06S
FLEMING/MASON* CLOUDY    72  70  94 S5        30.04S
DANVILLE*      CLOUDY    72  72 100 S6        30.06S
RICHMOND*      CLOUDY    73  70  88 S3        30.05S
LEXINGTON      CLOUDY    75  71  87 S6        30.04S
FRANKFORT      CLOUDY    73  72  96 S6        30.01F
$$

KYZ091>093-OHZ055-061-077-WVZ005-015-034-035-042-010400
...SOUTHERN OHIO/WEST VIRGINIA...

CITY           SKY/WX    TMP DP  RH WIND       PRES   REMARKS
COVINGTON      CLEAR     72  68  87 S3        30.01S
COLUMBUS       PTCLDY    75  68  78 SE5       30.01S
DAYTON         MOCLDY    75  70  84 S6        30.01S
WILMINGTON     CLEAR     69  67  93 S3        30.02S
HUNTINGTON     CLOUDY    72  71  97 SW5       30.04S THUNDER
CHARLESTON     LGT RAIN  72  72 100 NE5       30.05F VSB 1/4
BECKLEY        LGT RAIN  71  66  84 S5        30.17S
BLUEFIELD      CLOUDY    73  64  73 W9        30.20S
$$

VAZ002-007-008-TNZ017-027-036-066-071-010400
...SOUTHWEST VIRGINIA/EAST TENNESSEE...

CITY           SKY/WX    TMP DP  RH WIND       PRES   REMARKS
WISE*          CLOUDY    70  63  78 S7        30.19F
JONESVILLE*      N/A     70  70 100 CALM      30.15S
ABINGDON*      CLOUDY    74  71  92 SW6       30.18S
BRISTOL        CLOUDY    75  70  84 S3        30.15S
KNOXVILLE      CLOUDY    72  69  90 W3        30.10F
OAK RIDGE      CLOUDY    72  70  93 CALM      30.13S
CROSSVILLE     CLOUDY    71  68  90 S5        30.14S
NASHVILLE      PTCLDY    75  72  90 CALM      30.05S
$$

...KEY TO REMARKS...
VSB - VISIBILITY IN MILES
WCI - WIND CHILL INDEX
HX  - HEAT INDEX

$$


USA.gov is the U.S. government's official web portal to all federal, state and local government web resources and services.